Weather History for Shirley, NY

Change the Weather History Date:

Friday, April 12, 2013

  Actual Average (KISP) Record (KISP)
Temperature  
Mean Temperature 42 °F 48 °F  
Max Temperature 46 °F 56 °F 73 °F (1996)
Min Temperature 39 °F 40 °F 28 °F (1989)
Degree Days  
Heating Degree Days 22 17  
Month to date heating degree days 226  
Since 1 July heating degree days 4918  
Cooling Degree Days 0 0  
Month to date cooling degree days 0  
Year to date cooling degree days 0  
Moisture  
Dew Point 38 °F    
Average Humidity 84    
Maximum Humidity 93    
Minimum Humidity 60    
Precipitation  
Precipitation 0.82 in 0.16 in 1.82 in (2007)
Month to date precipitation 1.83  
Year to date precipitation 13.17  
Snow  
Snow 0.00 in 0.00 in - ()
Month to date snowfall 0.4  
Since 1 July snowfall 24.6  
Snow Depth -    
Sea Level Pressure  
Sea Level Pressure 29.87 in    
Wind  
Wind Speed 9 mph (ENE)    
Max Wind Speed 18 mph    
Max Gust Speed 34 mph    
Visibility 6 miles    
Events Rain    
T = Trace of Precipitation, MM = Missing Value Source: NWS Daily Summary

Daily Weather History Graph

Daily Weather History Graph

Search for Another Location

Airport:

Trip Planner

Search our weather history database for the weather conditions in past years. The results will help you decide how hot, cold, wet, or windy it might be!

Date:

Astronomy

Apr. 12, 2013 Rise Set
Actual Time 6:16 AM EDT 7:28 PM EDT
Civil Twilight 5:48 AM EDT 7:56 PM EDT
Nautical Twilight 5:14 AM EDT 8:30 PM EDT
Astronomical Twilight 4:39 AM EDT 9:05 PM EDT
Moon 7:24 AM EDT (4/12) 9:57 PM EDT (4/12)
Length of Visible Light 14h 07m
Length of Day
13h 11m
Waxing Crescent, 5% of the Moon is Illuminated
Apr 12
Waxing Crescent
Apr 18
First Quarter
Apr 25
Full
May 2
Last Quarter
May 9
New

Hourly Weather History & Observations

Time (EDT) Temp. Windchill Dew Point Humidity Pressure Visibility Wind Dir Wind Speed Gust Speed Precip Events Conditions
12:56 AM 46.0 °F 41.9 °F 35.1 °F 66% 30.06 in 10.0 mi East 8.1 mph - N/A   Overcast
1:56 AM 46.9 °F - 35.1 °F 63% 30.04 in 10.0 mi Variable 6.9 mph - N/A   Overcast
2:56 AM 46.0 °F 41.9 °F 37.0 °F 71% 30.04 in 10.0 mi East 8.1 mph 23.0 mph N/A   Overcast
3:56 AM 46.0 °F 43.1 °F 35.1 °F 66% 30.02 in 10.0 mi Variable 5.8 mph - 0.00 in Rain Light Rain
4:56 AM 44.1 °F 39.5 °F 35.1 °F 71% 30.02 in 9.0 mi East 8.1 mph - 0.00 in Rain Light Rain
5:39 AM 44.6 °F 39.7 °F 35.6 °F 71% 30.02 in 10.0 mi East 9.2 mph 17.3 mph 0.00 in   Overcast
5:56 AM 45.0 °F 42.6 °F 34.0 °F 65% 30.01 in 10.0 mi Variable 4.6 mph 19.6 mph 0.00 in   Overcast
6:16 AM 44.6 °F 39.2 °F 32.0 °F 61% 30.00 in 10.0 mi East 10.4 mph 28.8 mph N/A   Overcast
6:56 AM 45.0 °F 38.9 °F 32.0 °F 60% 29.99 in 10.0 mi East 12.7 mph 26.5 mph N/A   Overcast
7:56 AM 43.0 °F 36.8 °F 34.0 °F 71% 29.98 in 10.0 mi East 11.5 mph 29.9 mph 0.00 in   Overcast
8:56 AM 43.0 °F 36.4 °F 34.0 °F 71% 29.95 in 10.0 mi East 12.7 mph 29.9 mph 0.00 in Rain Light Rain
9:28 AM 41.0 °F 34.3 °F 35.6 °F 81% 29.94 in 2.0 mi East 11.5 mph 26.5 mph 0.03 in Rain Light Rain
9:36 AM 41.0 °F 33.9 °F 35.6 °F 81% 29.93 in 3.0 mi East 12.7 mph 26.5 mph 0.03 in Rain Light Rain
9:49 AM 41.0 °F 33.9 °F 35.6 °F 81% 29.93 in 6.0 mi East 12.7 mph 26.5 mph 0.03 in Rain Light Rain
9:56 AM 41.0 °F 33.1 °F 36.0 °F 82% 29.92 in 7.0 mi East 15.0 mph 34.5 mph 0.03 in Rain Light Rain
10:17 AM 41.0 °F 32.2 °F 37.4 °F 87% 29.92 in 1.5 mi East 18.4 mph 29.9 mph 0.04 in Rain Rain
10:56 AM 39.9 °F 32.5 °F 37.0 °F 89% 29.92 in 2.5 mi East 12.7 mph 25.3 mph 0.11 in Rain Light Rain
11:10 AM 39.2 °F 30.2 °F 37.4 °F 93% 29.92 in 1.2 mi East 17.3 mph 32.2 mph 0.06 in Rain Heavy Rain
11:37 AM 39.2 °F 32.5 °F 37.4 °F 93% 29.92 in 2.5 mi East 10.4 mph 25.3 mph 0.17 in Rain Light Rain
11:56 AM 41.0 °F 33.9 °F 37.9 °F 89% 29.91 in 1.8 mi East 12.7 mph 26.5 mph 0.20 in Rain Rain
12:08 PM 41.0 °F 35.8 °F 37.4 °F 87% 29.90 in 2.0 mi East 8.1 mph 24.2 mph 0.03 in Rain Light Rain
12:27 PM 41.0 °F 35.8 °F 39.2 °F 93% 29.89 in 3.0 mi East 8.1 mph 21.9 mph 0.06 in Rain Light Rain
12:56 PM 41.0 °F 35.8 °F 39.0 °F 93% 29.89 in 4.0 mi East 8.1 mph 21.9 mph 0.10 in Rain Light Rain
1:27 PM 42.8 °F 36.6 °F 39.2 °F 87% 29.85 in 6.0 mi East 11.5 mph 23.0 mph 0.03 in Rain Light Rain
1:56 PM 41.0 °F 35.8 °F 39.0 °F 93% 29.82 in 6.0 mi East 8.1 mph 19.6 mph 0.05 in Rain Light Rain
2:56 PM 43.0 °F 38.8 °F 39.9 °F 89% 29.79 in 10.0 mi Variable 6.9 mph - 0.04 in Rain Light Rain
3:20 PM 42.8 °F 38.0 °F 39.2 °F 87% 29.77 in 1.8 mi ENE 8.1 mph - 0.04 in Rain Rain
3:52 PM 42.8 °F 40.1 °F 41.0 °F 93% 29.75 in 3.0 mi Variable 4.6 mph - 0.13 in Rain Light Rain
3:53 PM 43.0 °F 39.5 °F 41.0 °F 93% 29.75 in 3.0 mi NNE 5.8 mph - 0.14 in Rain Light Rain
4:05 PM 42.8 °F 39.3 °F 41.0 °F 93% 29.75 in 1.8 mi Variable 5.8 mph - 0.03 in Rain Rain
4:16 PM 42.8 °F 39.3 °F 41.0 °F 93% 29.74 in 3.0 mi Variable 5.8 mph - 0.04 in Rain Light Rain
4:53 PM 42.8 °F 39.3 °F 41.0 °F 93% 29.74 in 2.5 mi Variable 5.8 mph - 0.08 in Rain Light Rain
4:56 PM 43.0 °F 38.8 °F 41.0 °F 93% 29.74 in 3.0 mi Variable 6.9 mph - 0.08 in Rain Light Rain
5:56 PM 43.0 °F 39.5 °F 41.0 °F 93% 29.73 in 10.0 mi Variable 5.8 mph - 0.02 in Rain Light Rain
6:56 PM 42.1 °F 39.2 °F 39.9 °F 92% 29.73 in 7.0 mi Variable 4.6 mph - 0.04 in Rain Light Rain
7:56 PM 42.1 °F 36.1 °F 39.0 °F 89% 29.72 in 10.0 mi NNE 10.4 mph 16.1 mph 0.01 in   Overcast
8:56 PM 41.0 °F 36.4 °F 39.0 °F 93% 29.73 in 10.0 mi NNE 6.9 mph - 0.00 in   Overcast
9:56 PM 41.0 °F 35.8 °F 37.9 °F 89% 29.73 in 10.0 mi North 8.1 mph - 0.00 in   Overcast
10:56 PM 39.9 °F 34.5 °F 37.9 °F 93% 29.74 in 4.0 mi NNE 8.1 mph - 0.00 in   Overcast
11:56 PM 39.9 °F 34.5 °F 37.9 °F 93% 29.74 in 9.0 mi North 8.1 mph - N/A   Overcast